[[{"header":{"parameterUnit":"m.s-1","parameterCategory":1,"la1":30.2991,"la2":30.254,"lo1":-89.0895,"lo2":-89.0444,"dy":0.0017,"dx":0.0017,"nx":28,"ny":28,"refTime":"2025-09-11T09:00:00:Z","depth":0,"parameterNumber":2,"parameterNumberName":"U-component_of_WINDS"},"data":[0,0,0,0,0,0,0,0,0,0,0,0,0,0,0,0,0,0,0,0,0,0,0,0,0,0,0,0,0,0,0,0,0,0,0,0,0,0,0,0,0,0,0,0,0,0,0,0,0,0,0,0,0,0,0,0,0,0,-2.9833,-2.9836,0,-3.0027,-3.0029,-3.0031,-3.0148,-3.0149,-3.015,-3.015,-3.0333,-3.0337,-3.0341,0,0,0,0,0,0,0,0,0,0,0,0,0,-2.9554,-2.9558,-2.9833,-2.9836,-2.9838,-3.0027,-3.0029,-3.0032,-3.0148,-3.0149,-3.015,-3.015,-3.0331,-3.0337,-3.0342,0,0,0,0,0,0,0,0,0,0,0,0,0,-2.9703,-2.956,-2.9833,-2.9919,-2.9929,-3.0026,-3.003,-3.0033,-3.0148,-3.0149,-3.015,-3.0151,-3.033,-3.0336,-3.0342,-3.0364,0,0,-3.0362,-3.0365,0,0,0,0,0,0,0,0,-2.9695,-2.9713,-2.9904,-2.9914,-2.9925,-3.0065,-2.9998,-3.0143,-3.0148,-3.0064,-3.015,-3.0151,-3.0242,-3.0256,-3.029,-3.0373,-3.038,-3.0363,-3.0367,-3.0369,-3.0371,0,0,0,0,0,0,0,-2.9684,-2.9706,-2.9909,-2.9907,-2.9919,-2.9945,-2.9967,-3.0026,-3.0145,-3.0072,-3.0081,-3.0103,-3.0248,-3.0283,-3.0295,-3.0383,-3.0363,-3.0368,-3.0372,-3.0375,-3.0498,-3.0497,0,0,0,0,0,0,-2.9662,-2.9696,-2.9903,-2.9915,-2.981,-2.9949,-2.9974,-3.0019,-3.0145,-3.0165,-3.0102,-3.0108,-3.0272,-3.0287,-3.0301,-3.0338,-3.0369,-3.0375,-3.0379,-3.0498,-3.0497,-3.0497,0,0,0,0,0,0,-2.9655,-2.9679,-2.9896,-2.9809,-2.9838,-2.9953,-3.0002,-3.0022,-3.0058,-3.0168,-3.0189,-3.0117,-3.0273,-3.0292,-3.035,-3.0346,-3.0378,-3.0384,-3.0499,-3.0498,-3.0497,-3.0408,0,0,0,0,0,0,-2.9647,-2.9676,-2.9688,-2.9808,-2.9843,-2.9943,-3.0002,-3.0025,-3.007,-3.008,-3.0188,-3.0206,-3.0275,-3.034,-3.0356,-3.0355,-3.0389,-3.05,-3.0499,-3.0497,-3.0412,-3.0404,-3.0398,0,0,0,0,0,-2.9637,-2.965,-2.9688,-2.9712,-2.986,-2.9943,-2.9962,-3.0045,-3.007,-3.0081,-3.0153,-3.0203,-3.0344,-3.0344,-3.0364,-3.0365,-3.05,-3.0499,-3.0498,-3.0415,-3.0406,-3.0398,0,0,0,0,0,0,-2.9519,-2.9667,-2.971,-2.9764,-2.9841,-2.9962,-2.9979,-3.0032,-3.0099,-3.0104,-3.0201,-3.0224,-3.0272,-3.0324,-3.0322,-3.0394,-3.0428,-3.043,-3.0358,-3.0351,-3.0344,-3.0329,-3.0395,0,0,0,0,0,-2.9501,-2.956,-2.9685,-2.972,-2.9757,-2.9862,-2.99,-2.996,-3.004,-3.0071,-3.0147,-3.022,-3.0282,-3.0319,-3.0381,-3.0421,-3.0446,-3.0432,-3.0424,-3.0418,-3.0418,-3.0446,-3.0441,-3.0492,-3.0492,-3.0492,0,0,-2.946,-2.9549,-2.9579,-2.9699,-2.9765,-2.9822,-2.9887,-2.9943,-2.9985,-3.0078,-3.0139,-3.0197,-3.0285,-3.0335,-3.036,-3.0379,-3.0411,-3.0417,-3.0411,-3.0414,-3.0444,-3.0439,-3.0435,-3.0491,-3.0492,-3.0492,0,0,-2.9417,-2.949,-2.953,-2.9597,-2.97,-2.977,-2.978,-2.9895,-2.994,-3.0004,-3.0076,-3.0126,-3.0229,-3.029,-3.0334,-3.0321,-3.037,-3.0338,-3.03,-3.0326,-3.0322,-3.0319,-3.0315,-3.0313,-3.0338,-3.0338,-3.0338,0,-2.9352,-2.9445,-2.9541,-2.9596,-2.9647,-2.9742,-2.9782,-2.984,-2.9955,-2.9986,-3.0008,-3.0144,-3.0209,-3.0276,-3.0274,-3.0306,-3.0319,-3.0325,-3.0316,-3.0314,-3.0312,-3.0309,-3.0308,-3.0334,-3.0334,-3.0335,-3.0335,0,-2.9361,-2.9424,-2.9443,-2.956,-2.9613,-2.9659,-2.9761,-2.9803,-2.9858,-2.9926,-2.9991,-3.0074,-3.0157,-3.0177,-3.0228,-3.0252,-3.0262,-3.0298,-3.0333,-3.0301,-3.03,-3.03,-3.0327,-3.0329,-3.033,-3.0332,0,0,-2.9242,-2.9419,-2.9424,-2.948,-2.9604,-2.9652,-2.9703,-2.9791,-2.9825,-2.9902,-2.9946,-3.0035,-3.0073,-3.0123,-3.0183,-3.0206,-3.0193,-3.024,-3.0244,-3.0229,-3.0225,-3.0196,-3.0193,-3.0227,-3.0228,-3.0228,-3.0218,0,-2.9216,-2.9319,-2.9411,-2.9477,-2.9537,-2.9632,-2.9677,-2.9755,-2.9821,-2.9879,-2.995,-3.0012,-3.0056,-3.0087,-3.0115,-3.0188,-3.0193,-3.019,-3.0266,-3.0268,-3.0241,-3.0193,-3.0161,-3.0148,-3.0218,-3.0218,-3.0218,0,-2.9198,-2.928,-2.9355,-2.9478,-2.9506,-2.9545,-2.9636,-2.9691,-2.9782,-2.9829,-2.9889,-2.9955,-3.0011,-3.0043,-3.0122,-3.0119,-3.0156,-3.0197,-3.0199,-3.0207,-3.024,-3.0199,-3.0146,-3.0143,-3.0218,-3.0218,-3.0218,0,-2.9105,-2.9233,-2.9296,-2.9341,-2.9485,-2.9511,-2.9571,-2.9665,-2.9714,-2.9791,-2.9824,-2.9904,-2.9947,-3.0007,-3.0092,-3.0108,-3.0163,-3.0201,-3.0201,-3.0199,-3.0205,-3.0203,-3.0156,-3.0231,-3.0231,-3.0231,-3.0231,0,-2.9065,-2.9106,-2.9257,-2.9294,-2.9345,-2.9451,-2.9496,-2.9564,-2.9648,-2.97,-2.9785,-2.983,-2.9941,-2.9999,-3.0065,-3.0122,-3.014,-3.0177,-3.0194,-3.0169,-3.0164,-3.0193,-3.0195,-3.023,-3.023,-3.0231,-3.0231,0,-2.8967,-2.9069,-2.9144,-2.9279,-2.9314,-2.9345,-2.9458,-2.9498,-2.9572,-2.9636,-2.9657,-2.977,-2.9844,-2.9937,-3.0037,-3.0082,-3.0131,-3.0157,-3.0101,-3.0111,-3.0106,-3.0105,-3.0074,-3.0076,-3.0149,-3.0148,-3.0148,0,-2.8933,-2.897,-2.9111,-2.9155,-2.9215,-2.9283,-2.9336,-2.9442,-2.9493,-2.9605,-2.963,-2.9713,-2.9784,-2.9897,-2.9985,-3.0064,-3.0092,-3.0077,-3.0104,-3.0079,-3.0092,-3.0089,-3.0093,-3.0068,-3.0066,-3.0065,-3.0064,0,-2.8864,-2.8915,-2.899,-2.9085,-2.9148,-2.9225,-2.9306,-2.9336,-2.9459,-2.9511,-2.9592,-2.9648,-2.9756,-2.9836,-2.9928,-2.9986,-3.0045,-3.0057,-3.0061,-3.0034,-3.0001,-3.002,-3.0081,-3.0055,-3.0056,-3.0057,-3.0057,-3.0058,-2.8797,-2.8835,-2.8943,-2.9025,-2.91,-2.9176,-2.9222,-2.9305,-2.9376,-2.9477,-2.9534,-2.9613,-2.9708,-2.9839,-2.9896,-2.9957,-2.9979,-2.9984,-2.9985,-2.9985,-2.9978,-2.9994,-2.9974,-2.9974,-2.9975,-2.9975,-2.9975,0,-2.8732,-2.8808,-2.8884,-2.8999,-2.9064,-2.9123,-2.9218,-2.9266,-2.9337,-2.9424,-2.9495,-2.9589,-2.9669,-2.9768,-2.9854,-2.9884,-2.9913,-2.9903,-2.99,-2.9913,-2.9953,-2.9941,-2.9878,-2.9878,-2.9878,-2.9878,-2.9878,-2.9878,-2.8705,-2.8774,-2.8839,-2.8946,-2.9022,-2.9105,-2.9154,-2.9224,-2.9295,-2.9399,-2.9469,-2.9535,-2.9627,-2.9722,-2.9798,-2.9825,-2.9851,-2.9833,-2.9867,-2.9901,-2.991,-2.9918,-2.9907,-2.9838,-2.9838,-2.9823,-2.9822,-2.9822]},{"header":{"parameterUnit":"m.s-1","parameterCategory":1,"la1":30.2991,"la2":30.254,"lo1":-89.0895,"lo2":-89.0444,"dy":0.0017,"dx":0.0017,"nx":28,"ny":28,"refTime":"2025-09-11T09:00:00:Z","depth":0,"parameterNumber":3,"parameterNumberName":"V-component_of_WINDS"},"data":[0,0,0,0,0,0,0,0,0,0,0,0,0,0,0,0,0,0,0,0,0,0,0,0,0,0,0,0,0,0,0,0,0,0,0,0,0,0,0,0,0,0,0,0,0,0,0,0,0,0,0,0,0,0,0,0,0,0,-0.718,-0.7182,0,-0.7382,-0.7384,-0.7386,-0.748,-0.7479,-0.7479,-0.7479,-0.7681,-0.7686,-0.7692,0,0,0,0,0,0,0,0,0,0,0,0,0,-0.6874,-0.6879,-0.718,-0.7183,-0.7185,-0.7381,-0.7384,-0.7387,-0.748,-0.7479,-0.7479,-0.7479,-0.7679,-0.7686,-0.7692,0,0,0,0,0,0,0,0,0,0,0,0,0,-0.7034,-0.6881,-0.718,-0.7255,-0.7264,-0.7381,-0.7384,-0.7388,-0.748,-0.7479,-0.7479,-0.7479,-0.7677,-0.7685,-0.7693,-0.7749,0,0,-0.7718,-0.7722,0,0,0,0,0,0,0,0,-0.7025,-0.7046,-0.7242,-0.725,-0.726,-0.7405,-0.7351,-0.7509,-0.748,-0.7398,-0.7479,-0.7479,-0.7589,-0.7605,-0.7643,-0.7758,-0.7767,-0.7719,-0.7724,-0.7728,-0.773,0,0,0,0,0,0,0,-0.7014,-0.7037,-0.726,-0.7244,-0.7256,-0.7279,-0.7301,-0.7381,-0.7492,-0.7405,-0.7412,-0.7435,-0.7594,-0.7635,-0.7648,-0.777,-0.7719,-0.7726,-0.7731,-0.7735,-0.7945,-0.7945,0,0,0,0,0,0,-0.6991,-0.7028,-0.7253,-0.7266,-0.714,-0.7284,-0.731,-0.7359,-0.7491,-0.7512,-0.7435,-0.7438,-0.7621,-0.7638,-0.7656,-0.7732,-0.7728,-0.7735,-0.774,-0.7944,-0.7945,-0.7946,0,0,0,0,0,0,-0.6984,-0.701,-0.7245,-0.7149,-0.7181,-0.729,-0.7345,-0.7363,-0.7404,-0.7514,-0.7534,-0.7456,-0.7621,-0.7644,-0.7726,-0.774,-0.7739,-0.7747,-0.7943,-0.7944,-0.7945,-0.7882,0,0,0,0,0,0,-0.6975,-0.7007,-0.7029,-0.7149,-0.7185,-0.7312,-0.7346,-0.7367,-0.7418,-0.7425,-0.7539,-0.7558,-0.7623,-0.7713,-0.7734,-0.7751,-0.7753,-0.7943,-0.7944,-0.7945,-0.7883,-0.7881,-0.7878,0,0,0,0,0,-0.6964,-0.7002,-0.703,-0.7057,-0.7216,-0.7313,-0.7334,-0.7409,-0.7419,-0.7442,-0.7514,-0.7554,-0.7735,-0.7721,-0.7745,-0.7765,-0.7942,-0.7944,-0.7945,-0.7884,-0.7881,-0.7878,0,0,0,0,0,0,-0.6879,-0.7019,-0.7051,-0.713,-0.7209,-0.7328,-0.736,-0.7403,-0.7479,-0.7482,-0.7571,-0.7596,-0.7671,-0.7726,-0.7708,-0.7828,-0.7842,-0.7849,-0.7788,-0.7786,-0.7783,-0.7768,-0.776,0,0,0,0,0,-0.687,-0.6938,-0.7056,-0.7114,-0.7152,-0.7249,-0.7294,-0.7346,-0.7431,-0.7464,-0.7542,-0.7622,-0.7698,-0.7745,-0.782,-0.7893,-0.792,-0.7918,-0.7916,-0.7913,-0.7917,-0.7962,-0.7963,-0.795,-0.795,-0.795,0,0,-0.685,-0.6935,-0.6972,-0.7099,-0.7166,-0.7235,-0.7276,-0.7346,-0.7398,-0.7475,-0.7558,-0.7618,-0.7713,-0.7791,-0.783,-0.784,-0.7927,-0.7915,-0.7912,-0.7918,-0.7963,-0.7965,-0.7966,-0.7951,-0.7951,-0.7951,0,0,-0.685,-0.6921,-0.6978,-0.7046,-0.7149,-0.7214,-0.7228,-0.7342,-0.7386,-0.7471,-0.7531,-0.7594,-0.7721,-0.7787,-0.7838,-0.7868,-0.7908,-0.789,-0.7876,-0.7919,-0.792,-0.7921,-0.7932,-0.7935,-0.7894,-0.7894,-0.7894,0,-0.6813,-0.6919,-0.7001,-0.707,-0.7124,-0.7199,-0.7258,-0.732,-0.7441,-0.7477,-0.7487,-0.7651,-0.7721,-0.7817,-0.7824,-0.7863,-0.7881,-0.7876,-0.7913,-0.7915,-0.7918,-0.793,-0.7934,-0.7891,-0.7891,-0.7891,-0.7892,0,-0.6869,-0.6942,-0.6975,-0.7093,-0.7152,-0.7214,-0.7306,-0.7356,-0.7403,-0.7467,-0.7555,-0.7642,-0.7737,-0.7764,-0.7809,-0.7867,-0.7871,-0.7896,-0.7913,-0.7915,-0.7927,-0.7933,-0.7887,-0.7888,-0.7888,-0.7889,0,0,-0.6817,-0.6983,-0.6994,-0.705,-0.7171,-0.7229,-0.7296,-0.7392,-0.7433,-0.7515,-0.7574,-0.7682,-0.7708,-0.7765,-0.782,-0.7857,-0.7877,-0.7878,-0.7882,-0.7875,-0.7948,-0.7927,-0.7931,-0.7906,-0.7907,-0.7908,-0.794,0,-0.6834,-0.6958,-0.7036,-0.7129,-0.7199,-0.7274,-0.7333,-0.7413,-0.7476,-0.7544,-0.7613,-0.7689,-0.7716,-0.7752,-0.7792,-0.7866,-0.7893,-0.7865,-0.7961,-0.7963,-0.7934,-0.7938,-0.7916,-0.7941,-0.7945,-0.7946,-0.7947,0,-0.6869,-0.6952,-0.7052,-0.7169,-0.7201,-0.7252,-0.7348,-0.7412,-0.7506,-0.7549,-0.7615,-0.7672,-0.7746,-0.7759,-0.7863,-0.7842,-0.7887,-0.793,-0.7933,-0.7943,-0.7954,-0.7948,-0.7951,-0.7955,-0.7955,-0.7955,-0.7954,0,-0.6822,-0.6959,-0.7037,-0.7083,-0.722,-0.7255,-0.7314,-0.7408,-0.7462,-0.7545,-0.7581,-0.7671,-0.7721,-0.779,-0.7869,-0.7871,-0.7966,-0.7985,-0.8004,-0.8002,-0.8019,-0.8017,-0.8029,-0.8049,-0.8049,-0.8049,-0.8048,0,-0.6831,-0.689,-0.7018,-0.7066,-0.7135,-0.7225,-0.729,-0.7355,-0.7439,-0.7502,-0.7572,-0.7629,-0.7731,-0.7801,-0.7864,-0.7942,-0.7963,-0.8,-0.8016,-0.7994,-0.7989,-0.8023,-0.8023,-0.805,-0.8049,-0.8049,-0.8049,0,-0.6789,-0.6877,-0.6968,-0.7093,-0.7126,-0.7171,-0.7277,-0.7327,-0.7396,-0.7474,-0.7497,-0.7604,-0.769,-0.7777,-0.7893,-0.7935,-0.8012,-0.8033,-0.798,-0.7989,-0.8004,-0.8001,-0.8037,-0.8047,-0.806,-0.8059,-0.8059,0,-0.6789,-0.6836,-0.6967,-0.7014,-0.7072,-0.7148,-0.7204,-0.7296,-0.7351,-0.7464,-0.7501,-0.7593,-0.7671,-0.7806,-0.7893,-0.7983,-0.8007,-0.8014,-0.8021,-0.7998,-0.8007,-0.8003,-0.8009,-0.801,-0.8009,-0.8009,-0.8008,0,-0.6779,-0.6822,-0.69,-0.6995,-0.7061,-0.7139,-0.7221,-0.7256,-0.7363,-0.7422,-0.7513,-0.7574,-0.7694,-0.7785,-0.7886,-0.7947,-0.7995,-0.8006,-0.8016,-0.7992,-0.796,-0.7978,-0.7971,-0.8004,-0.8005,-0.8005,-0.8005,-0.8005,-0.6758,-0.6804,-0.6905,-0.6991,-0.7062,-0.7138,-0.7192,-0.7268,-0.7345,-0.7451,-0.7501,-0.7592,-0.7688,-0.7829,-0.789,-0.7963,-0.7975,-0.7989,-0.7992,-0.7993,-0.7989,-0.7949,-0.7981,-0.7981,-0.7982,-0.7982,-0.7982,0,-0.6752,-0.6821,-0.69,-0.7013,-0.7081,-0.7124,-0.7217,-0.7271,-0.7351,-0.7437,-0.7514,-0.762,-0.7709,-0.7805,-0.7901,-0.7941,-0.7966,-0.7963,-0.796,-0.7974,-0.7971,-0.7954,-0.7941,-0.7941,-0.7941,-0.7941,-0.7941,-0.7941,-0.6757,-0.6838,-0.6893,-0.7012,-0.7081,-0.7172,-0.7222,-0.7292,-0.7362,-0.7477,-0.7552,-0.7615,-0.7707,-0.781,-0.7895,-0.7921,-0.7952,-0.7943,-0.7975,-0.797,-0.7973,-0.7976,-0.796,-0.7949,-0.7949,-0.7972,-0.7972,-0.7972]}]]